Regional Weather Roundup
Issued by NWS

Home | Current Version | Previous Version | Graphics & Text | Print | Product List | Glossary On
Versions: 1 2 3 4 5 6 7 8 9 10 11 12 13 14 15 16 17 18 19 20 21 22 23 24 25 26 27 28 29 30 31 32 33 34 35 36 37 38 39 40 41 42 43 44 45 46 47 48 49 50
000
ASUS43 KDMX 271707
RWRIA

WEATHER ROUNDUP FOR IOWA
NATIONAL WEATHER SERVICE DES MOINES IA
1100 AM CST THU NOV 27 2014

NOTE: "FAIR" INDICATES FEW OR NO CLOUDS BELOW 12,000 FEET WITH NO
SIGNIFICANT WEATHER AND/OR OBSTRUCTIONS TO VISIBILITY.

* - THESE STATIONS ARE NOT NWS STATIONS...THUS NOT UNDER NWS
QUALITY CONTROL.  THEY ALSO DO NOT REPORT WEATHER SUCH
AS PRECIPITATION OR FOG.

IAZ001>003-012>014-020>022-031>034-043>046-271800-
   NORTHWEST IOWA

CITY           SKY/WX    TMP DP  RH WIND       PRES   REMARKS
CARROLL *        N/A      3  -6  66 W3        30.54F
CHEROKEE *     SUNNY      3  -4  72 CALM      30.53S
DENISON *      PTSUNNY    9  -6  52 CALM      30.52S
LE MARS *      CLOUDY     5  -4  66 S5        30.53F WCI  -4
ORANGE CITY *  SUNNY      3  -8  60 CALM      30.49F
SHELDON *      SUNNY      3  -8  60 CALM      30.49S
SIOUX CITY     CLOUDY    11  -3  53 E8        30.53F WCI  -1
SPENCER        SUNNY      2  -5  72 CALM      30.51R
STORM LAKE *   SUNNY      1  -6  71 CALM      30.51S
$$

IAZ055>058-069>071-079>083-090>094-271800-
   SOUTHWEST IOWA

CITY           SKY/WX    TMP DP  RH WIND       PRES   REMARKS
ATLANTIC *     CLOUDY     9  -4  56 NE7       30.53F WCI  -3
AUDUBON *      MOSUNNY    7  -6  56 CALM      30.53S
CLARINDA *     CLOUDY    18   7  62 VRB3      30.56F
COUNCIL BLFS * PTSUNNY   16   0  48 E5        30.52S WCI   9
CRESTON *      PTSUNNY   10   1  67 NW7       30.53S WCI   0
HARLAN  *      CLOUDY    10  -6  48 NE6       30.57F WCI   1
LAMONI         SUNNY     18   9  68 NW7       30.52S WCI   9
RED OAK *      CLOUDY    14   3  62 CALM      30.55F
SHENANDOAH *   CLOUDY    18   5  57 NE5       30.55F WCI  11
$$

IAZ047>049-059>061-072>074-084-271800-
   CENTRAL IOWA

CITY           SKY/WX    TMP DP  RH WIND       PRES   REMARKS
AMES           SUNNY      2  -6  69 N6        30.55R WCI  -9
ANKENY *       SUNNY      3  -6  66 NW7       30.56R WCI  -9
CHARITON *     SUNNY     12   3  67 NW5       30.52F WCI   4
DES MOINES     MOSUNNY    8  -3  61 NW7       30.55S WCI  -3
GRINNELL*      SUNNY      5  -2  72 NW8       30.51S WCI  -8
KNOXVILLE *    SUNNY      7  -2  66 NW8       30.53R WCI  -6
MARSHALLTOWN   SUNNY      3  -3  76 W7        30.51S WCI  -9
PELLA *        SUNNY      7   0  72 NW8       30.55S WCI  -6
PERRY *          N/A      5  -2  72 NW3       30.56R
$$

IAZ004>006-015-016-023>025-035-036-271800-
   NORTH CENTRAL IOWA

CITY           SKY/WX    TMP DP  RH WIND       PRES   REMARKS
ALGONA *       SUNNY     -4  -9  77 N9        30.52R WCI -20
CLARION *      SUNNY     -4  -9  77 NW6       30.52R WCI -16
ESTHERVILLE    SUNNY     -3  -8  79 NW8       30.50S WCI -18
FORT DODGE *   SUNNY      0  -8  71 NW5       30.53S WCI -10
MASON CITY     SUNNY     -1  -7  75 N12       30.50F WCI -18
FOREST CITY *  SUNNY      0  -6  78 N8        30.50S WCI -15
IOWA FALLS *     N/A      5  -2  72 NW5       30.51R WCI  -4
$$

IAZ007>011-017>019-026>030-037>042-050>054-066-271800-
   NORTHEAST IOWA

CITY           SKY/WX    TMP DP  RH WIND       PRES   REMARKS
CEDAR RAPIDS   SUNNY     13   6  74 NW13      30.46F WCI  -2
CHARLES CITY * SUNNY      1  -6  71 NW9       30.49F WCI -14
CLINTON *      MOSUNNY   19  12  73 W16       30.44S WCI   5
DECORAH *      SUNNY      7  -4  61 NW13      30.44S WCI  -9
DUBUQUE        SUNNY     18  10  71 N15       30.40S WCI   4
MONTICELLO *   SUNNY     18   7  62 NW10G17   30.44S WCI   6
OELWEIN *      SUNNY      7   0  72 NW12      30.46F WCI  -9
WATERLOO       SUNNY      5  -3  69 NW12      30.49F WCI -11
$$

IAZ064-065-067-068-078-271800-
   EAST CENTRAL IOWA

CITY           SKY/WX    TMP DP  RH WIND       PRES   REMARKS
DAVENPORT      PTSUNNY   18  11  74 W16       30.44R WCI   3
IOWA CITY      SUNNY     15   7  70 NW9       30.50S WCI   3
MT. PLEASANT * SUNNY     14   5  67 W12       30.50S WCI   0
MUSCATINE *    SUNNY     18   9  68 NW13      30.50S WCI   4
QUAD CITIES    PTSUNNY   21  13  71 W15       30.45R WCI   8
$$

IAZ062-063-075>077-085>089-095>099-271800-
   SOUTHEAST IOWA

CITY           SKY/WX    TMP DP  RH WIND       PRES   REMARKS
BURLINGTON     SUNNY     18  11  74 NW13      30.48R WCI   5
FAIRFIELD *    SUNNY     10   1  67 NW13      30.51F WCI  -5
FORT MADISON * SUNNY     18  12  79 NW12      30.49S WCI   5
KEOKUK *       CLOUDY    21  16  79 NW12      30.49S WCI   9
OSKALOOSA *      N/A      7   0  72 NW13      30.53S WCI  -9
CENTERVILLE *  SUNNY     18  10  73 NW9       30.52S WCI   6
OTTUMWA        SUNNY     10   2  69 NW14      30.52S WCI  -6
WASHINGTON *   SUNNY     10   7  85 W13       30.50S WCI  -5
$$

ABBREVIATIONS USED IN REMARKS
   TC - TEMPERATURES IN CELSIUS
  WCI - WIND CHILL INDEX
   HX - HEAT INDEX
  VSB - VISIBILITY
$$



USA.gov is the U.S. government's official web portal to all federal, state and local government web resources and services.